Location: Bukovany
(49.8234°N, 14.6297°E)
Time: 01:35:07
(UTC+00:00)

Cosmos 304 Rocket - Pass Details

Date: 17 November 2025
Orbit: 668 x 677 km, 74.0° (Epoch: 13 December)

Event Time Altitude Azimuth Distance (km) Brightness Sun altitude
Rises 18:07:38 0° 211° (SSW) 3,004 7.4 -27.5°
Reaches altitude 10° 18:09:56 10° 215° (SW) 2,096 6.6 -27.9°
Enters shadow 18:14:00 57° 258° (WSW) 796 4.3 -28.5°
